This demonstration page uses our WeatherBlox Daily Observations layout. Learn more.

Left ArrowRight Arrow

Hourly Observations for October 19, 2015

Temp ( °F °C ) Dew Point ( °F °C ) Humidity (%) Winds ( mph kmh ) Pressure ( in mb ) Visibility ( mi km ) Precip ( " mm )
12:53 am 00:53 Clear 42 5.6 39 3.9 89 89 Calm 30.39 1029 10 16 0.00 0.00
1:53 am 01:53 Clear 41 5 38 3.3 89 89 Calm 30.40 1029 10 16 0.00 0.00
2:53 am 02:53 Clear 41 5 38 3.3 89 89 Calm 30.40 1030 10 16 0.00 0.00
3:53 am 03:53 Clear 40 4.4 37 2.8 89 89 Calm 30.40 1030 10 16 0.00 0.00
4:53 am 04:53 Clear 40 4.4 37 2.8 89 89 NE 3 6 30.41 1030 10 16 0.00 0.00
5:53 am 05:53 Clear 42 5.6 39 3.9 89 89 NE 3 6 30.42 1030 10 16 0.00 0.00
6:53 am 06:53 Clear 39 3.9 36 2.2 89 89 Calm 30.44 1031 10 16 0.00 0.00
7:53 am 07:53 Sunny 39 3.9 36 2.2 89 89 NNE 5 7 30.46 1031 10 16 0.00 0.00
8:53 am 08:53 Sunny 45 7.2 38 3.3 77 77 NE 7 11 30.47 1032 10 16 0.00 0.00
9:53 am 09:53 Sunny 50 10 36 2.2 59 59 ENE 9 15 30.49 1032 10 16 0.00 0.00
10:53 am 10:53 Sunny 54 12.2 34 1.1 47 47 E 10 17 30.50 1033 10 16 0.00 0.00
11:53 am 11:53 Sunny 58 14.4 32 0 38 38 ESE 8 13 30.50 1033 10 16 0.00 0.00
12:53 pm 12:53 Sunny 59 15 32 0 36 36 ESE 8 13 30.48 1032 10 16 0.00 0.00
1:53 pm 13:53 Sunny 61 16.1 32 0 34 34 E 8 13 30.45 1031 10 16 0.00 0.00
2:53 pm 14:53 Sunny 62 16.7 33 0.6 34 34 SSE 8 13 30.42 1030 10 16 0.00 0.00
3:53 pm 15:53 Sunny 64 17.8 33 0.6 32 32 ESE 8 13 30.39 1029 10 16 0.00 0.00
4:53 pm 16:53 Sunny 64 17.8 32 0 30 30 ESE 7 11 30.38 1029 10 16 0.00 0.00
5:53 pm 17:53 Sunny 63 17.2 33 0.6 33 33 SSE 6 9 30.37 1028 10 16 0.00 0.00
6:53 pm 18:53 Sunny 61 16.1 35 1.7 38 38 ESE 5 7 30.37 1028 10 16 0.00 0.00
7:53 pm 19:53 Clear 58 14.4 37 2.8 46 46 Calm 30.37 1028 10 16 0.00 0.00
8:53 pm 20:53 Clear 48 8.9 42 5.6 80 80 Calm 30.38 1029 10 16 0.00 0.00
9:53 pm 21:53 Clear 46 7.8 42 5.6 86 86 Calm 30.38 1029 10 16 0.00 0.00
10:53 pm 22:53 Clear 45 7.2 41 5 86 86 Calm 30.39 1029 10 16 0.00 0.00
11:53 pm 23:53 Clear 44 6.7 40 4.4 85 85 Calm 30.40 1029 10 16 0.00 0.00

Powered by AerisWeather